Weather in Pavlopillia

Ukraine / Dnipropetrovsk Region     47°52′35″N   34°02′37″E
temp.,
°C
wind,
m/s
gust,
m/s
humid.,
%
clouds,
%
prec.,
mm/h
press.,
hPa
HPBL,
m
19 april, mon
mon1900:00+9ne2269100 0.0 101618
03:00+9e0070100 0.0 101610
06:00+8ne3375100 0.0 101576
09:00+10nne2270100 0.0 1016423
12:00+13n1156100 0.1 10151363
15:00+13ssw105599 0.5 10151148
18:00+13e115889 0.4 1014780
21:00+11ne3571100 0.8 1014106
20 april, tue
tue2000:00+10ne3573100 0.0 1012144
03:00+9ne4776100 0.0 1010179
06:00+9ne51078100 0.1 1007325
09:00+8nne61091100 3.0 1005462
12:00+8n71294100 8.6 1002692
15:00+9n81293100 15.6 1000603
18:00+9nnw71193100 3.5 1001667
21:00+9nw91489100 5.4 1004766
21 april, wed
wed2100:00+8w61288100 0.2 1007501
03:00+8w5986100 0.4 1009410
06:00+5w410911 0.0 1011259
09:00+10w57695 0.0 1014708
12:00+13w795277 0.0 10141847
15:00+13wsw5751100 0.0 10151713
18:00+13sw455927 0.2 10161105
21:00+8sw358999 2.4 101789
22 april, thu
thu2200:00+7ssw37915 0.7 1018126
03:00+7ssw34945 0.7 101876
06:00+6s34945 0.0 101958
09:00+11ssw45745 0.0 1020402
12:00+16s55541 0.1 10201377
15:00+17s564860 1.3 10191996
18:00+15ssw466277 0.8 1020187
21:00+11s46745 0.9 102183
23 april, fri
fri2300:00+9ssw37884 0.0 1021139
03:00+7s369258 0.0 1021115
06:00+7s48945 0.0 1020182
09:00+12s68705 0.0 1020541
12:00+16s78511 0.0 10201538
15:00+18s784366 0.0 10172525
18:00+14ssw51063100 0.0 1017439
21:00+12ssw4107228 0.0 1017238